When you browse on this site, cookies collect data to enhance your experience and personalize the content and advertising you see.
Visit our Privacy Policy to learn more. By continuing to use the site, you agree to this use of cookies and data.
  • In Deutschland
  • Länderverzeichnis
  • Für 7 Tage
  • Wassertemperatur
  • Satellitenkarten
  • Wetterkarte
  • Widgets
  • user-avatar
    Anmelden

    Stündliche Wetter Michalow

    Heute, 27 Mai, Montag

    Zeit Temperatur Niederschläge Wind Luftdruck Luftfeuchtigkeit
    00:00 +13°C° 0 mm 3 m/S 748 mmHg 83%
    01:00 +13°C° 0 mm 3 m/S 748 mmHg 86%
    02:00 +13°C° 0 mm 3 m/S 748 mmHg 87%
    03:00 +13°C° 0 mm 3 m/S 747 mmHg 89%
    04:00 +13°C° 0 mm 3 m/S 747 mmHg 90%
    05:00 +14°C° 0 mm 3 m/S 747 mmHg 85%
    06:00 +17°C° 0 mm 4 m/S 747 mmHg 79%
    07:00 +19°C° 0 mm 4 m/S 747 mmHg 73%
    08:00 +21°C° 0.1 mm 4 m/S 747 mmHg 67%
    09:00 +22°C° 0.1 mm 5 m/S 747 mmHg 61%
    10:00 +25°C° 0.1 mm 5 m/S 747 mmHg 55%
    11:00 +25°C° 0.1 mm 5 m/S 746 mmHg 54%
    12:00 +26°C° 0.1 mm 5 m/S 746 mmHg 53%
    13:00 +26°C° 0.1 mm 5 m/S 746 mmHg 52%
    14:00 +26°C° 0.3 mm 5 m/S 746 mmHg 54%
    15:00 +26°C° 0.3 mm 5 m/S 746 mmHg 57%
    16:00 +25°C° 0.3 mm 4 m/S 746 mmHg 59%
    17:00 +23°C° 0.3 mm 4 m/S 745 mmHg 65%
    18:00 +22°C° 0.3 mm 3 m/S 745 mmHg 72%
    19:00 +20°C° 0.3 mm 3 m/S 745 mmHg 78%
    20:00 +20°C° 0 mm 2 m/S 745 mmHg 80%
    21:00 +19°C° 0 mm 2 m/S 745 mmHg 83%
    22:00 +18°C° 0 mm 2 m/S 745 mmHg 85%
    23:00 +18°C° 0.3 mm 2 m/S 745 mmHg 87%

    Morgen, 28 Mai, Dienstag

    Zeit Temperatur Niederschläge Wind Luftdruck Luftfeuchtigkeit
    00:00 +17°C° 0.3 mm 2 m/S 745 mmHg 90%
    01:00 +17°C° 0.3 mm 2 m/S 744 mmHg 92%
    02:00 +17°C° 0.5 mm 3 m/S 744 mmHg 93%
    03:00 +17°C° 0.5 mm 3 m/S 744 mmHg 94%
    04:00 +17°C° 0.5 mm 3 m/S 743 mmHg 95%
    05:00 +17°C° 0.4 mm 3 m/S 743 mmHg 93%
    06:00 +18°C° 0.4 mm 3 m/S 743 mmHg 90%
    07:00 +19°C° 0.4 mm 2 m/S 742 mmHg 87%
    08:00 +20°C° 0.3 mm 3 m/S 742 mmHg 84%
    09:00 +21°C° 0.3 mm 3 m/S 742 mmHg 80%
    10:00 +22°C° 0.3 mm 4 m/S 742 mmHg 77%
    11:00 +23°C° 0.5 mm 4 m/S 742 mmHg 73%
    12:00 +23°C° 0.5 mm 4 m/S 742 mmHg 70%
    13:00 +25°C° 0.5 mm 5 m/S 742 mmHg 66%
    14:00 +23°C° 1.7 mm 4 m/S 742 mmHg 72%
    15:00 +22°C° 1.7 mm 3 m/S 742 mmHg 77%
    16:00 +20°C° 1.7 mm 2 m/S 742 mmHg 83%
    17:00 +20°C° 0.8 mm 2 m/S 742 mmHg 83%
    18:00 +21°C° 0.8 mm 1 m/S 742 mmHg 83%
    19:00 +20°C° 0.8 mm 1 m/S 743 mmHg 84%
    20:00 +18°C° 0.5 mm 2 m/S 743 mmHg 87%
    21:00 +17°C° 0.5 mm 3 m/S 743 mmHg 90%
    22:00 +15°C° 0.5 mm 4 m/S 744 mmHg 93%
    23:00 +14°C° 0 mm 4 m/S 744 mmHg 93%

    übermorgen, 29 Mai, Mittwoch

    Zeit Temperatur Niederschläge Wind Luftdruck Luftfeuchtigkeit
    00:00 +13°C° 0 mm 4 m/S 744 mmHg 93%
    01:00 +12°C° 0 mm 5 m/S 745 mmHg 93%
    02:00 +12°C° 0 mm 5 m/S 745 mmHg 92%
    03:00 +10°C° 0 mm 5 m/S 746 mmHg 91%
    04:00 +9°C° 0 mm 5 m/S 746 mmHg 90%
    05:00 +9°C° 0.1 mm 5 m/S 747 mmHg 89%
    06:00 +9°C° 0.1 mm 5 m/S 748 mmHg 87%
    07:00 +9°C° 0.1 mm 5 m/S 748 mmHg 86%
    08:00 +10°C° 0 mm 4 m/S 749 mmHg 83%
    09:00 +11°C° 0 mm 4 m/S 749 mmHg 81%
    10:00 +11°C° 0 mm 4 m/S 750 mmHg 78%
    11:00 +12°C° 0 mm 4 m/S 750 mmHg 75%
    12:00 +13°C° 0 mm 4 m/S 750 mmHg 72%
    13:00 +14°C° 0 mm 4 m/S 751 mmHg 69%
    14:00 +14°C° 0 mm 4 m/S 751 mmHg 68%
    15:00 +14°C° 0 mm 4 m/S 751 mmHg 67%
    16:00 +16°C° 0 mm 3 m/S 751 mmHg 66%
    17:00 +16°C° 0 mm 3 m/S 751 mmHg 68%
    18:00 +14°C° 0 mm 3 m/S 751 mmHg 71%
    19:00 +14°C° 0 mm 3 m/S 752 mmHg 73%
    20:00 +13°C° 0 mm 3 m/S 752 mmHg 74%
    21:00 +12°C° 0 mm 3 m/S 752 mmHg 75%
    22:00 +11°C° 0 mm 4 m/S 753 mmHg 76%
    23:00 +10°C° 0 mm 3 m/S 753 mmHg 77%

    30 Mai, Donnerstag

    Zeit Temperatur Niederschläge Wind Luftdruck Luftfeuchtigkeit
    00:00 +9°C° 0 mm 3 m/S 753 mmHg 78%
    01:00 +8°C° 0 mm 3 m/S 753 mmHg 79%
    02:00 +8°C° 0 mm 3 m/S 753 mmHg 78%
    03:00 +7°C° 0 mm 3 m/S 753 mmHg 78%
    04:00 +7°C° 0 mm 3 m/S 753 mmHg 78%
    05:00 +8°C° 0 mm 2 m/S 753 mmHg 75%
    06:00 +9°C° 0 mm 2 m/S 753 mmHg 71%
    07:00 +12°C° 0 mm 2 m/S 754 mmHg 68%
    08:00 +12°C° 0 mm 2 m/S 754 mmHg 70%
    09:00 +12°C° 0 mm 2 m/S 754 mmHg 72%
    10:00 +13°C° 0 mm 2 m/S 754 mmHg 73%
    11:00 +13°C° 0 mm 2 m/S 754 mmHg 72%
    12:00 +14°C° 0 mm 2 m/S 754 mmHg 70%
    13:00 +14°C° 0 mm 2 m/S 754 mmHg 69%
    14:00 +15°C° 0 mm 2 m/S 753 mmHg 66%
    15:00 +16°C° 0 mm 2 m/S 753 mmHg 63%
    16:00 +18°C° 0 mm 1 m/S 753 mmHg 60%
    17:00 +16°C° 0 mm 1 m/S 753 mmHg 63%
    18:00 +16°C° 0 mm 1 m/S 753 mmHg 66%
    19:00 +15°C° 0 mm 1 m/S 753 mmHg 70%
    20:00 +14°C° 0 mm 1 m/S 753 mmHg 72%
    21:00 +13°C° 0 mm 1 m/S 753 mmHg 74%
    22:00 +12°C° 0 mm 1 m/S 753 mmHg 75%
    23:00 +11°C° 0 mm 1 m/S 753 mmHg 77%

    31 Mai, Freitag

    Zeit Temperatur Niederschläge Wind Luftdruck Luftfeuchtigkeit
    00:00 +11°C° 0 mm 1 m/S 752 mmHg 78%
    01:00 +10°C° 0 mm 1 m/S 752 mmHg 79%
    02:00 +10°C° 0 mm 1 m/S 752 mmHg 80%
    03:00 +10°C° 0 mm 1 m/S 752 mmHg 82%
    04:00 +10°C° 0 mm 1 m/S 751 mmHg 83%
    05:00 +12°C° 0 mm 1 m/S 751 mmHg 79%
    06:00 +13°C° 0 mm 2 m/S 751 mmHg 75%
    07:00 +15°C° 0 mm 2 m/S 751 mmHg 71%
    08:00 +17°C° 0 mm 2 m/S 750 mmHg 66%
    09:00 +18°C° 0 mm 3 m/S 750 mmHg 61%
    10:00 +20°C° 0 mm 3 m/S 749 mmHg 56%
    11:00 +21°C° 0 mm 3 m/S 749 mmHg 53%
    12:00 +22°C° 0 mm 3 m/S 749 mmHg 50%
    13:00 +24°C° 0 mm 3 m/S 748 mmHg 47%
    14:00 +22°C° 0.5 mm 4 m/S 749 mmHg 55%
    15:00 +21°C° 0.5 mm 6 m/S 749 mmHg 63%
    16:00 +20°C° 0.5 mm 7 m/S 750 mmHg 71%
    17:00 +16°C° 0.2 mm 7 m/S 750 mmHg 75%
    18:00 +11°C° 0.2 mm 7 m/S 751 mmHg 79%
    19:00 +7°C° 0.2 mm 8 m/S 752 mmHg 83%
    20:00 +8°C° 0.1 mm 7 m/S 753 mmHg 80%
    21:00 +8°C° 0.1 mm 6 m/S 754 mmHg 77%
    22:00 +8°C° 0.1 mm 5 m/S 754 mmHg 74%
    23:00 +8°C° 0 mm 5 m/S 755 mmHg 74%

    1 Juni, Samstag

    Zeit Temperatur Niederschläge Wind Luftdruck Luftfeuchtigkeit
    00:00 +7°C° 0 mm 5 m/S 755 mmHg 74%
    01:00 +7°C° 0 mm 5 m/S 756 mmHg 73%
    02:00 +6°C° 0 mm 5 m/S 756 mmHg 73%
    03:00 +6°C° 0 mm 4 m/S 756 mmHg 73%
    04:00 +5°C° 0 mm 4 m/S 757 mmHg 73%
    05:00 +6°C° 0 mm 4 m/S 757 mmHg 70%
    06:00 +8°C° 0 mm 4 m/S 758 mmHg 66%
    07:00 +9°C° 0 mm 5 m/S 758 mmHg 63%
    08:00 +10°C° 0 mm 5 m/S 758 mmHg 57%
    09:00 +13°C° 0 mm 5 m/S 758 mmHg 52%
    10:00 +14°C° 0 mm 5 m/S 758 mmHg 47%
    11:00 +15°C° 0 mm 5 m/S 758 mmHg 46%
    12:00 +16°C° 0 mm 5 m/S 758 mmHg 46%
    13:00 +16°C° 0 mm 5 m/S 758 mmHg 46%
    14:00 +16°C° 0 mm 5 m/S 758 mmHg 48%
    15:00 +16°C° 0 mm 5 m/S 758 mmHg 50%
    16:00 +16°C° 0 mm 5 m/S 759 mmHg 51%
    17:00 +14°C° 0 mm 4 m/S 759 mmHg 55%
    18:00 +13°C° 0 mm 4 m/S 759 mmHg 59%
    19:00 +12°C° 0 mm 3 m/S 759 mmHg 63%
    20:00 +11°C° 0 mm 3 m/S 760 mmHg 66%
    21:00 +10°C° 0 mm 3 m/S 760 mmHg 69%
    22:00 +9°C° 0 mm 3 m/S 760 mmHg 73%
    23:00 +8°C° 0 mm 3 m/S 761 mmHg 74%
    Mehr zeigen